Scammon Bay Airport
PACM : now visible

Airfield :











YOU CAN JOIN US ON...

 
LOGIN :

Register | Disclaimer

   EN    FR    IT 

 









Legend :    VFR   Marginal VFR   IFR   Intensive IFR   Very Intensive IFR
Visi :
Ceiling :
>= 8 km
>= 3000ft
5 to 8 km
1000 to 3000 ft
1500m to 5 km
500 to 1000 ft
800 to 1500m
200 to 500 ft
< 800m
< 200 ft
Symbols :   Thunderstorms  Fog  Heavy snow  Heavy precipitations  Wind > 20 kt






- Airport Elevation : 14 ft


PACM - Scammon Bay

CURRENT METAR :
  • 241722Z AUTO 26012KT 10SM BKN012 M13/M14 A3015 RMK AO2 FZRANO PNO $

EXPIRED METARs :
  • 241656Z AUTO 25012KT 10SM BKN014 M13/M14 A3015 RMK AO2 SLP205 T11331144 FZRANO PNO $
  • 241556Z AUTO 24011KT 10SM BKN014 M13/M14 A3015 RMK AO2 SNE24 SLP204 T11281139 FZRANO PNO $
  • 241551Z AUTO 25013KT 10SM SCT014 M13/M14 A3014 RMK AO2 SNE24 FZRANO PNO $
  • 241456Z AUTO 26020KT 9SM -SN OVC014 M12/M13 A3012 RMK AO2 SNE24B42 SLP197 6//// T11171128 50013 FZRANO PNO $

TAF N/A
PAZA FIR / North America



MET'MAP, your aeronautical weather chart ! - Copyright ORBIFLY December 2007 - Disclaimer

ORBIFLY MET'MAP TEAM :

Programming & Development : Alexandra Zaïnal
Concept & original design : Baudouin d'Aumeries
Assistance for programming : Marc-Olivier Méhu
Technical & hardware support : Manuel Goepfert

Contact : metmap@orbifly.com




SOURCES & CREDITS :

   NOAA       Earth
Advisory